AUA293 LOWW-ENBR

Flight info

Callsign AUA293
Flight time 2h 22m
Altitude 36000
Route LANUX2C/29 LANUX DCT VLM DCT HDO DCT GITER DCT BADAB
Aircraft A320/M-SDE3FGHIRWY/LB1

Departure

Time 2026-04-25 16:48
Airport Vienna International Airport (LOWW)

Arrival

Time 2026-04-25 19:10
Airport Bergen Airport, Flesland (ENBR)
Time Latitude Longitude Altitude Speed Heading
2026-04-25 16:28 48.11533 16.56786 620 ft 0 kts 206°
2026-04-25 16:43 48.11525 16.56780 619 ft 6 kts 206°
2026-04-25 16:43 48.11479 16.56755 610 ft 6 kts 180°
2026-04-25 16:44 48.11456 16.56799 612 ft 7 kts 116°
2026-04-25 16:44 48.11433 16.56869 610 ft 7 kts 116°
2026-04-25 16:44 48.11412 16.56932 616 ft 10 kts 116°
2026-04-25 16:44 48.11382 16.57025 620 ft 9 kts 116°
2026-04-25 16:45 48.11351 16.57120 621 ft 12 kts 116°
2026-04-25 16:45 48.11312 16.57240 617 ft 13 kts 115°
2026-04-25 16:45 48.11277 16.57350 612 ft 11 kts 116°
2026-04-25 16:45 48.11240 16.57462 612 ft 14 kts 116°
2026-04-25 16:46 48.11195 16.57591 616 ft 13 kts 129°
2026-04-25 16:46 48.11126 16.57571 615 ft 11 kts 213°
2026-04-25 16:46 48.11056 16.57510 614 ft 12 kts 208°
2026-04-25 16:46 48.11006 16.57474 618 ft 12 kts 205°
2026-04-25 16:47 48.10977 16.57341 617 ft 14 kts 296°
2026-04-25 16:47 48.11083 16.57016 612 ft 67 kts 296°
2026-04-25 16:47 48.11379 16.56102 616 ft 126 kts 295°
2026-04-25 16:47 48.11827 16.54722 645 ft 167 kts 296°
2026-04-25 16:48 48.12166 16.53140 1321 ft 160 kts 267°
2026-04-25 16:48 48.11870 16.51490 1911 ft 167 kts 259°
2026-04-25 16:48 48.11644 16.49797 2537 ft 165 kts 266°
2026-04-25 16:48 48.11492 16.48090 3198 ft 165 kts 268°
2026-04-25 16:49 48.11564 16.46401 3816 ft 163 kts 285°
2026-04-25 16:49 48.11794 16.44641 4143 ft 183 kts 283°
2026-04-25 16:49 48.12029 16.42654 4374 ft 205 kts 282°
2026-04-25 16:49 48.12281 16.40422 4620 ft 229 kts 282°
2026-04-25 16:50 48.12550 16.37985 4983 ft 250 kts 281°
2026-04-25 16:50 48.12828 16.35383 5709 ft 255 kts 281°
2026-04-25 16:50 48.13103 16.32751 6541 ft 257 kts 280°
2026-04-25 16:50 48.13380 16.30083 7321 ft 260 kts 281°
2026-04-25 16:51 48.13661 16.27390 8072 ft 264 kts 281°
2026-04-25 16:51 48.13954 16.24659 8816 ft 267 kts 284°
2026-04-25 16:51 48.14610 16.22066 9584 ft 267 kts 303°
2026-04-25 16:51 48.15343 16.20573 10086 ft 267 kts 314°
2026-04-25 16:52 48.17374 16.18385 10728 ft 284 kts 333°
2026-04-25 16:52 48.19221 16.17012 10913 ft 307 kts 333°
2026-04-25 16:52 48.21212 16.15550 11089 ft 328 kts 333°
2026-04-25 16:52 48.23291 16.14024 11574 ft 336 kts 333°
2026-04-25 16:53 48.27524 16.10905 12822 ft 345 kts 333°
2026-04-25 16:53 48.29716 16.09280 13454 ft 349 kts 333°
2026-04-25 16:53 48.31877 16.07671 14045 ft 353 kts 333°
2026-04-25 16:54 48.34092 16.06021 14614 ft 356 kts 333°
2026-04-25 16:54 48.36322 16.04361 15180 ft 359 kts 333°
2026-04-25 16:54 48.38573 16.02687 15739 ft 362 kts 333°
2026-04-25 16:54 48.40840 16.01002 16316 ft 365 kts 333°
2026-04-25 16:55 48.43127 15.99299 16877 ft 367 kts 333°
2026-04-25 16:55 48.45423 15.97587 17431 ft 370 kts 333°
2026-04-25 16:55 48.47741 15.95855 17980 ft 373 kts 333°
2026-04-25 16:55 48.50076 15.94104 18503 ft 376 kts 333°
2026-04-25 16:56 48.52432 15.92334 18979 ft 379 kts 333°
2026-04-25 16:56 48.54804 15.90552 19467 ft 382 kts 333°
2026-04-25 16:56 48.57196 15.88749 19942 ft 385 kts 333°
2026-04-25 16:56 48.59552 15.86869 20404 ft 388 kts 331°
2026-04-25 16:57 48.61920 15.84868 20860 ft 391 kts 330°
2026-04-25 16:57 48.62726 15.84169 21012 ft 392 kts 330°
2026-04-25 16:57 48.66673 15.80700 21761 ft 396 kts 330°
2026-04-25 16:57 48.69069 15.78596 22191 ft 399 kts 330°
2026-04-25 16:58 48.71484 15.76492 22610 ft 401 kts 330°
2026-04-25 16:58 48.73894 15.74411 23023 ft 404 kts 330°
2026-04-25 16:58 48.76344 15.72307 23435 ft 406 kts 330°
2026-04-25 16:58 48.78817 15.70188 23786 ft 408 kts 330°
2026-04-25 16:59 48.81293 15.68067 24117 ft 410 kts 330°
2026-04-25 16:59 48.83784 15.65928 24445 ft 412 kts 330°
2026-04-25 16:59 48.86288 15.63769 24770 ft 413 kts 330°
2026-04-25 16:59 48.88811 15.61629 25090 ft 415 kts 334°
2026-04-25 17:00 48.91418 15.59853 25398 ft 416 kts 336°
2026-04-25 17:00 48.94087 15.58085 25714 ft 418 kts 336°
2026-04-25 17:00 48.96764 15.56311 26037 ft 419 kts 336°
2026-04-25 17:00 48.99448 15.54532 26336 ft 421 kts 336°
2026-04-25 17:01 49.02114 15.52769 26628 ft 422 kts 336°
2026-04-25 17:01 49.04849 15.50960 26930 ft 424 kts 336°
2026-04-25 17:01 49.07530 15.49180 27217 ft 425 kts 336°
2026-04-25 17:01 49.10252 15.47369 27494 ft 426 kts 336°
2026-04-25 17:02 49.12980 15.45550 27772 ft 428 kts 336°
2026-04-25 17:02 49.15716 15.43719 28033 ft 429 kts 336°
2026-04-25 17:02 49.18458 15.41879 28285 ft 431 kts 336°
2026-04-25 17:02 49.21172 15.40060 28531 ft 432 kts 336°
2026-04-25 17:03 49.23968 15.38185 28775 ft 433 kts 336°
2026-04-25 17:03 49.26696 15.36357 28996 ft 434 kts 336°
2026-04-25 17:03 49.29478 15.34491 29226 ft 435 kts 336°
2026-04-25 17:03 49.32248 15.32624 29552 ft 434 kts 336°
2026-04-25 17:04 49.35005 15.30761 29874 ft 433 kts 336°
2026-04-25 17:04 49.37761 15.28900 30164 ft 432 kts 336°
2026-04-25 17:04 49.40509 15.27040 30434 ft 431 kts 336°
2026-04-25 17:04 49.43248 15.25189 30705 ft 429 kts 336°
2026-04-25 17:05 49.45947 15.23366 30983 ft 428 kts 336°
2026-04-25 17:05 49.51387 15.19677 31539 ft 426 kts 335°
2026-04-25 17:05 49.54092 15.17836 31815 ft 424 kts 335°
2026-04-25 17:06 49.56789 15.15997 32092 ft 423 kts 335°
2026-04-25 17:06 49.59475 15.14165 32362 ft 422 kts 335°
2026-04-25 17:06 49.62160 15.12338 32634 ft 421 kts 335°
2026-04-25 17:06 49.64836 15.10517 32891 ft 420 kts 335°
2026-04-25 17:07 49.67498 15.08694 33170 ft 418 kts 335°
2026-04-25 17:07 49.70158 15.06870 33435 ft 417 kts 335°
2026-04-25 17:07 49.72840 15.05154 33707 ft 416 kts 338°
2026-04-25 17:07 49.75552 15.03595 33968 ft 415 kts 339°
2026-04-25 17:08 49.78154 15.02192 34205 ft 415 kts 339°
2026-04-25 17:08 49.80881 15.00757 34433 ft 414 kts 339°
2026-04-25 17:08 49.83604 14.99316 34637 ft 413 kts 339°
2026-04-25 17:08 49.86319 14.97851 34848 ft 412 kts 339°
2026-04-25 17:09 49.89019 14.96364 35050 ft 412 kts 338°
2026-04-25 17:09 49.91712 14.94854 35244 ft 411 kts 338°
2026-04-25 17:09 49.94396 14.93337 35433 ft 410 kts 338°
2026-04-25 17:09 49.97043 14.91834 35614 ft 410 kts 338°
2026-04-25 17:10 49.99718 14.90317 35798 ft 409 kts 338°
2026-04-25 17:10 50.02392 14.88806 35958 ft 409 kts 338°
2026-04-25 17:10 50.07745 14.85795 35998 ft 409 kts 338°
2026-04-25 17:11 50.13103 14.82780 35993 ft 409 kts 338°
2026-04-25 17:11 50.18459 14.79743 35997 ft 409 kts 338°
2026-04-25 17:12 50.23807 14.76708 35997 ft 409 kts 337°
2026-04-25 17:12 50.29154 14.73671 35995 ft 409 kts 337°
2026-04-25 17:13 50.32692 14.71656 35999 ft 409 kts 337°
2026-04-25 17:13 50.38541 14.68318 35996 ft 408 kts 337°
2026-04-25 17:14 50.42974 14.65778 36002 ft 408 kts 337°
2026-04-25 17:14 50.48309 14.62716 35998 ft 408 kts 337°
2026-04-25 17:15 50.54507 14.59150 36004 ft 408 kts 336°
2026-04-25 17:15 50.58942 14.56595 36001 ft 408 kts 336°
2026-04-25 17:16 50.64266 14.53517 36000 ft 408 kts 336°
2026-04-25 17:16 50.69592 14.50430 35997 ft 407 kts 336°
2026-04-25 17:17 50.74909 14.47338 35996 ft 408 kts 336°
2026-04-25 17:17 50.80230 14.44239 35997 ft 407 kts 336°
2026-04-25 17:18 50.85553 14.41128 36003 ft 407 kts 336°
2026-04-25 17:18 50.90865 14.38016 35998 ft 407 kts 336°
2026-04-25 17:19 50.95976 14.34279 36003 ft 404 kts 329°
2026-04-25 17:19 51.00962 14.30164 36002 ft 404 kts 329°
2026-04-25 17:20 51.05952 14.26042 36004 ft 404 kts 329°
2026-04-25 17:20 51.10900 14.21933 36006 ft 404 kts 329°
2026-04-25 17:21 51.15888 14.17796 36010 ft 403 kts 329°
2026-04-25 17:21 51.20876 14.13643 36003 ft 403 kts 329°
2026-04-25 17:22 51.25011 14.10191 36008 ft 403 kts 329°
2026-04-25 17:22 51.30801 14.05353 36011 ft 403 kts 329°
2026-04-25 17:23 51.35778 14.01181 36006 ft 403 kts 329°
2026-04-25 17:23 51.40734 13.97006 36008 ft 403 kts 329°
2026-04-25 17:24 51.45696 13.92820 36015 ft 403 kts 329°
2026-04-25 17:24 51.50672 13.88619 36003 ft 403 kts 329°
2026-04-25 17:25 51.55611 13.84435 36003 ft 402 kts 329°
2026-04-25 17:25 51.60563 13.80232 36001 ft 402 kts 329°
2026-04-25 17:26 51.65498 13.76029 36002 ft 402 kts 328°
2026-04-25 17:26 51.70442 13.71805 36004 ft 402 kts 328°
2026-04-25 17:27 51.75381 13.67577 36013 ft 401 kts 328°
2026-04-25 17:27 51.79484 13.64056 36008 ft 401 kts 328°
2026-04-25 17:28 51.85215 13.59132 36015 ft 401 kts 328°
2026-04-25 17:28 51.90129 13.54897 36013 ft 400 kts 328°
2026-04-25 17:29 51.95024 13.50668 36014 ft 400 kts 328°
2026-04-25 17:29 51.99546 13.46747 36012 ft 399 kts 328°
2026-04-25 17:30 52.04449 13.42495 36013 ft 399 kts 328°
2026-04-25 17:30 52.09338 13.38242 35994 ft 399 kts 328°
2026-04-25 17:31 52.14201 13.33998 35992 ft 398 kts 328°
2026-04-25 17:31 52.19085 13.29711 35986 ft 398 kts 328°
2026-04-25 17:32 52.23956 13.25429 35988 ft 397 kts 328°
2026-04-25 17:32 52.28821 13.21153 35985 ft 397 kts 328°
2026-04-25 17:33 52.33659 13.16897 35992 ft 396 kts 328°
2026-04-25 17:33 52.38519 13.12617 35991 ft 396 kts 328°
2026-04-25 17:34 52.43358 13.08324 36002 ft 395 kts 328°
2026-04-25 17:34 52.48195 13.04013 36007 ft 395 kts 328°
2026-04-25 17:35 52.53017 12.99722 36015 ft 394 kts 328°
2026-04-25 17:35 52.57807 12.95443 36016 ft 394 kts 327°
2026-04-25 17:36 52.62617 12.91132 36013 ft 393 kts 327°
2026-04-25 17:36 52.67416 12.86828 36012 ft 393 kts 327°
2026-04-25 17:37 52.72217 12.82510 36023 ft 392 kts 327°
2026-04-25 17:37 52.77001 12.78185 36019 ft 392 kts 327°
2026-04-25 17:38 52.80986 12.74586 36027 ft 392 kts 327°
2026-04-25 17:38 52.86542 12.69550 36021 ft 391 kts 327°
2026-04-25 17:39 52.91315 12.65216 36023 ft 391 kts 327°
2026-04-25 17:39 52.96079 12.60872 36020 ft 390 kts 327°
2026-04-25 17:40 53.00837 12.56526 36020 ft 390 kts 327°
2026-04-25 17:40 53.05588 12.52180 36016 ft 390 kts 327°
2026-04-25 17:41 53.10335 12.47821 36119 ft 387 kts 327°
2026-04-25 17:41 53.12671 12.45671 36004 ft 380 kts 328°
2026-04-25 17:41 53.14975 12.43553 35995 ft 377 kts 327°
2026-04-25 17:42 53.19540 12.39335 35992 ft 377 kts 327°
2026-04-25 17:42 53.24136 12.35090 35994 ft 377 kts 327°
2026-04-25 17:43 53.28725 12.30846 35996 ft 377 kts 327°
2026-04-25 17:43 53.33316 12.26577 35997 ft 377 kts 327°
2026-04-25 17:44 53.37903 12.22290 35996 ft 377 kts 327°
2026-04-25 17:44 53.42461 12.18038 35995 ft 377 kts 328°
2026-04-25 17:45 53.45541 12.15200 35996 ft 377 kts 328°
2026-04-25 17:45 53.51677 12.09580 35995 ft 377 kts 328°
2026-04-25 17:46 53.56279 12.05340 35996 ft 377 kts 328°
2026-04-25 17:46 53.60873 12.01082 35996 ft 377 kts 328°
2026-04-25 17:47 53.65453 11.96821 35999 ft 376 kts 328°
2026-04-25 17:47 53.70015 11.92579 35992 ft 376 kts 328°
2026-04-25 17:48 53.76880 11.86180 35993 ft 376 kts 328°
2026-04-25 17:49 53.81459 11.81898 35997 ft 376 kts 328°
2026-04-25 17:49 53.86023 11.77599 36001 ft 375 kts 328°
2026-04-25 17:50 53.89819 11.74020 36002 ft 375 kts 328°
2026-04-25 17:50 53.95117 11.69030 36001 ft 374 kts 328°
2026-04-25 17:51 53.99668 11.64730 36000 ft 374 kts 328°
2026-04-25 17:51 54.04216 11.60423 36000 ft 373 kts 328°
2026-04-25 17:52 54.08740 11.56119 36001 ft 372 kts 328°
2026-04-25 17:52 54.13260 11.51800 36004 ft 372 kts 328°
2026-04-25 17:53 54.17770 11.47478 36002 ft 372 kts 328°
2026-04-25 17:53 54.22277 11.43164 36004 ft 371 kts 328°
2026-04-25 17:54 54.26758 11.38868 36001 ft 371 kts 328°
2026-04-25 17:54 54.31255 11.34538 35999 ft 370 kts 328°
2026-04-25 17:55 54.35739 11.30205 35999 ft 370 kts 328°
2026-04-25 17:55 54.40221 11.25863 36006 ft 369 kts 328°
2026-04-25 17:56 54.44699 11.21523 36009 ft 369 kts 328°
2026-04-25 17:56 54.49179 11.17178 36011 ft 369 kts 328°
2026-04-25 17:57 54.53614 11.12850 36012 ft 368 kts 328°
2026-04-25 17:57 54.58076 11.08486 36012 ft 368 kts 328°
2026-04-25 17:58 54.62527 11.04139 36012 ft 367 kts 328°
2026-04-25 17:58 54.66963 10.99786 36014 ft 366 kts 328°
2026-04-25 17:59 54.71387 10.95426 36017 ft 366 kts 328°
2026-04-25 17:59 54.75814 10.91048 36017 ft 366 kts 328°
2026-04-25 18:00 54.79482 10.87415 36019 ft 366 kts 328°
2026-04-25 18:00 54.84618 10.82316 36016 ft 365 kts 328°
2026-04-25 18:01 54.89028 10.77930 36011 ft 365 kts 328°
2026-04-25 18:01 54.93424 10.73534 36012 ft 364 kts 328°
2026-04-25 18:02 54.97818 10.69137 36016 ft 364 kts 328°
2026-04-25 18:02 55.02206 10.64738 36013 ft 364 kts 328°
2026-04-25 18:03 55.06593 10.60333 36019 ft 363 kts 329°
2026-04-25 18:03 55.10970 10.55925 36013 ft 363 kts 329°
2026-04-25 18:04 55.15342 10.51510 36010 ft 362 kts 329°
2026-04-25 18:04 55.19684 10.47112 36005 ft 362 kts 329°
2026-04-25 18:05 55.24040 10.42673 35996 ft 361 kts 329°
2026-04-25 18:05 55.27657 10.38982 35993 ft 361 kts 329°
2026-04-25 18:06 55.32005 10.34551 35994 ft 361 kts 329°
2026-04-25 18:06 55.36359 10.30107 35985 ft 361 kts 329°
2026-04-25 18:07 55.40681 10.25681 35984 ft 361 kts 329°
2026-04-25 18:07 55.45029 10.21213 35983 ft 361 kts 329°
2026-04-25 18:08 55.49379 10.16728 35984 ft 361 kts 329°
2026-04-25 18:08 55.53685 10.12277 35987 ft 361 kts 329°
2026-04-25 18:09 55.58022 10.07781 35993 ft 361 kts 329°
2026-04-25 18:09 55.62355 10.03279 35995 ft 360 kts 329°
2026-04-25 18:10 55.66676 9.98776 35995 ft 360 kts 329°
2026-04-25 18:10 55.70998 9.94268 36001 ft 360 kts 329°
2026-04-25 18:11 55.75320 9.89741 36004 ft 361 kts 329°
2026-04-25 18:11 55.79645 9.85206 35999 ft 361 kts 329°
2026-04-25 18:12 55.83969 9.80659 36001 ft 361 kts 329°
2026-04-25 18:12 55.88269 9.76125 36009 ft 361 kts 329°
2026-04-25 18:13 55.92587 9.71544 36018 ft 361 kts 329°
2026-04-25 18:13 55.96905 9.66960 36021 ft 361 kts 329°
2026-04-25 18:14 56.03403 9.60048 36019 ft 362 kts 329°
2026-04-25 18:14 56.07727 9.55435 36020 ft 362 kts 329°
2026-04-25 18:15 56.12058 9.50800 36016 ft 362 kts 329°
2026-04-25 18:15 56.16354 9.46182 36011 ft 362 kts 329°
2026-04-25 18:16 56.20671 9.41537 36011 ft 362 kts 329°
2026-04-25 18:17 56.27156 9.34537 36005 ft 361 kts 329°
2026-04-25 18:17 56.31467 9.29873 36000 ft 361 kts 329°
2026-04-25 18:18 56.35774 9.25186 36000 ft 362 kts 329°
2026-04-25 18:18 56.40083 9.20484 36003 ft 362 kts 330°
2026-04-25 18:19 56.44373 9.15810 36013 ft 363 kts 330°
2026-04-25 18:19 56.48693 9.11083 36017 ft 363 kts 329°
2026-04-25 18:20 56.53012 9.06328 36029 ft 363 kts 330°
2026-04-25 18:20 56.57328 9.01581 36027 ft 363 kts 330°
2026-04-25 18:21 56.61649 8.96819 36034 ft 363 kts 330°
2026-04-25 18:21 56.65968 8.92041 36038 ft 363 kts 330°
2026-04-25 18:22 56.70279 8.87251 36038 ft 363 kts 330°
2026-04-25 18:22 56.74591 8.82447 36040 ft 363 kts 330°
2026-04-25 18:23 56.78893 8.77640 36041 ft 363 kts 330°
2026-04-25 18:23 56.83176 8.72851 36047 ft 363 kts 330°
2026-04-25 18:24 56.87481 8.68022 36047 ft 363 kts 330°
2026-04-25 18:24 56.91780 8.63183 36045 ft 362 kts 330°
2026-04-25 18:25 56.96073 8.58348 36052 ft 362 kts 330°
2026-04-25 18:25 57.00371 8.53489 36056 ft 362 kts 330°
2026-04-25 18:26 57.04659 8.48624 36054 ft 362 kts 330°
2026-04-25 18:26 57.08944 8.43741 36057 ft 362 kts 330°
2026-04-25 18:27 57.13229 8.38856 36053 ft 362 kts 330°
2026-04-25 18:27 57.17510 8.33958 36052 ft 362 kts 330°
2026-04-25 18:28 57.21758 8.29082 36047 ft 362 kts 330°
2026-04-25 18:28 57.26042 8.24152 36058 ft 363 kts 330°
2026-04-25 18:29 57.32470 8.16744 36063 ft 363 kts 330°
2026-04-25 18:30 57.41034 8.06808 36064 ft 363 kts 330°
2026-04-25 18:30 57.45320 8.01815 36068 ft 363 kts 330°
2026-04-25 18:31 57.49597 7.96818 36073 ft 363 kts 330°
2026-04-25 18:31 57.53876 7.91808 36081 ft 363 kts 330°
2026-04-25 18:32 57.58159 7.86778 36065 ft 364 kts 330°
2026-04-25 18:32 57.62414 7.81772 36074 ft 364 kts 330°
2026-04-25 18:33 57.66687 7.76721 36082 ft 363 kts 329°
2026-04-25 18:33 57.70954 7.71667 36084 ft 363 kts 330°
2026-04-25 18:34 57.75217 7.66613 36086 ft 363 kts 329°
2026-04-25 18:34 57.79469 7.61561 36085 ft 363 kts 329°
2026-04-25 18:35 57.83730 7.56469 36088 ft 363 kts 329°
2026-04-25 18:35 57.87997 7.51364 36095 ft 363 kts 329°
2026-04-25 18:36 57.92244 7.46252 36096 ft 362 kts 329°
2026-04-25 18:36 57.96494 7.41124 36091 ft 362 kts 329°
2026-04-25 18:37 58.00954 7.36765 36092 ft 361 kts 335°
2026-04-25 18:37 58.05527 7.32786 36093 ft 361 kts 336°
2026-04-25 18:38 58.10069 7.28846 36090 ft 361 kts 336°
2026-04-25 18:38 58.14636 7.24869 36092 ft 361 kts 335°
2026-04-25 18:39 58.19202 7.20858 36080 ft 361 kts 335°
2026-04-25 18:39 58.23757 7.16844 36091 ft 361 kts 335°
2026-04-25 18:40 58.28319 7.12819 36083 ft 361 kts 335°
2026-04-25 18:40 58.32883 7.08765 36092 ft 362 kts 335°
2026-04-25 18:41 58.37413 7.04734 36078 ft 361 kts 335°
2026-04-25 18:41 58.41971 7.00678 36092 ft 362 kts 335°
2026-04-25 18:42 58.45018 6.97956 36078 ft 361 kts 335°
2026-04-25 18:42 58.51077 6.92528 36088 ft 362 kts 335°
2026-04-25 18:43 58.55634 6.88429 36083 ft 362 kts 335°
2026-04-25 18:43 58.60199 6.84322 36090 ft 362 kts 335°
2026-04-25 18:44 58.62488 6.82254 35932 ft 364 kts 335°
2026-04-25 18:44 58.64783 6.80176 35496 ft 364 kts 335°
2026-04-25 18:44 58.67082 6.78094 34930 ft 365 kts 335°
2026-04-25 18:44 58.69384 6.76011 34323 ft 365 kts 336°
2026-04-25 18:45 58.71689 6.73922 33669 ft 366 kts 336°
2026-04-25 18:45 58.73971 6.71850 33004 ft 368 kts 336°
2026-04-25 18:45 58.76294 6.69732 32350 ft 369 kts 335°
2026-04-25 18:45 58.78626 6.67597 31710 ft 371 kts 335°
2026-04-25 18:46 58.80964 6.65454 31073 ft 373 kts 336°
2026-04-25 18:46 58.83319 6.63301 30456 ft 375 kts 336°
2026-04-25 18:46 58.85657 6.61160 29687 ft 375 kts 336°
2026-04-25 18:46 58.88009 6.59002 28915 ft 371 kts 335°
2026-04-25 18:47 58.90325 6.56868 28193 ft 366 kts 335°
2026-04-25 18:47 58.92612 6.54761 27536 ft 362 kts 335°
2026-04-25 18:47 58.94875 6.52674 26873 ft 357 kts 335°
2026-04-25 18:47 58.97109 6.50608 26238 ft 353 kts 335°
2026-04-25 18:48 58.99292 6.48589 25643 ft 349 kts 335°
2026-04-25 18:48 59.01470 6.46572 25044 ft 346 kts 335°
2026-04-25 18:48 59.03639 6.44560 24461 ft 342 kts 335°
2026-04-25 18:48 59.05790 6.42563 23792 ft 341 kts 335°
2026-04-25 18:49 59.07899 6.40603 23196 ft 336 kts 335°
2026-04-25 18:49 59.10005 6.38639 22611 ft 333 kts 335°
2026-04-25 18:49 59.12087 6.36695 22033 ft 329 kts 335°
2026-04-25 18:49 59.14141 6.34774 21457 ft 327 kts 335°
2026-04-25 18:50 59.16159 6.32884 20893 ft 325 kts 335°
2026-04-25 18:50 59.18190 6.30978 20358 ft 322 kts 335°
2026-04-25 18:50 59.20199 6.29092 19865 ft 319 kts 335°
2026-04-25 18:50 59.22187 6.27226 19375 ft 316 kts 335°
2026-04-25 18:51 59.24167 6.25366 18885 ft 314 kts 335°
2026-04-25 18:51 59.24832 6.24742 18692 ft 313 kts 335°
2026-04-25 18:51 59.28087 6.21683 17812 ft 310 kts 335°
2026-04-25 18:51 59.29372 6.20472 17413 ft 309 kts 335°
2026-04-25 18:52 59.31928 6.18058 16704 ft 307 kts 335°
2026-04-25 18:52 59.33848 6.16239 16103 ft 306 kts 335°
2026-04-25 18:52 59.35763 6.14423 15584 ft 305 kts 335°
2026-04-25 18:52 59.37033 6.13217 15251 ft 304 kts 335°
2026-04-25 18:53 59.38932 6.11415 14701 ft 303 kts 335°
2026-04-25 18:53 59.40832 6.09608 14222 ft 302 kts 335°
2026-04-25 18:53 59.42721 6.07809 13620 ft 301 kts 335°
2026-04-25 18:53 59.44609 6.06015 13051 ft 300 kts 335°
2026-04-25 18:54 59.48348 6.02459 11971 ft 298 kts 336°
2026-04-25 18:54 59.50217 6.00671 11447 ft 298 kts 335°
2026-04-25 18:54 59.52079 5.98886 10906 ft 296 kts 335°
2026-04-25 18:55 59.53929 5.97110 10389 ft 295 kts 335°
2026-04-25 18:55 59.55775 5.95339 10131 ft 295 kts 335°
2026-04-25 18:55 59.57568 5.93617 10103 ft 278 kts 335°
2026-04-25 18:55 59.59251 5.91988 10105 ft 261 kts 335°
2026-04-25 18:56 59.60829 5.90456 10103 ft 247 kts 335°
2026-04-25 18:56 59.62362 5.88970 10107 ft 244 kts 336°
2026-04-25 18:56 59.63886 5.87503 10108 ft 243 kts 336°
2026-04-25 18:56 59.65389 5.86062 10118 ft 243 kts 337°
2026-04-25 18:57 59.66976 5.84926 10114 ft 241 kts 345°
2026-04-25 18:57 59.68628 5.84339 10120 ft 242 kts 354°
2026-04-25 18:57 59.70299 5.83857 10111 ft 242 kts 342°
2026-04-25 18:57 59.71301 5.82888 10089 ft 244 kts 330°
2026-04-25 18:58 59.73165 5.80376 9920 ft 244 kts 328°
2026-04-25 18:58 59.75957 5.76537 9640 ft 244 kts 328°
2026-04-25 18:58 59.77358 5.74611 9378 ft 242 kts 328°
2026-04-25 18:59 59.80119 5.70804 8550 ft 243 kts 328°
2026-04-25 18:59 59.82904 5.66961 7760 ft 243 kts 328°
2026-04-25 19:00 59.85688 5.63108 6997 ft 244 kts 328°
2026-04-25 19:00 59.87088 5.61173 6612 ft 244 kts 328°
2026-04-25 19:01 59.89871 5.57326 5855 ft 244 kts 328°
2026-04-25 19:01 59.91267 5.55390 5511 ft 244 kts 328°
2026-04-25 19:01 59.92655 5.53460 5170 ft 242 kts 328°
2026-04-25 19:01 59.94034 5.51543 4818 ft 240 kts 328°
2026-04-25 19:02 59.96652 5.47896 4423 ft 219 kts 328°
2026-04-25 19:02 59.97873 5.46192 4257 ft 210 kts 328°
2026-04-25 19:02 59.99062 5.44534 3985 ft 207 kts 328°
2026-04-25 19:03 60.01021 5.41802 3468 ft 205 kts 328°
2026-04-25 19:03 60.02570 5.39634 3051 ft 204 kts 328°
2026-04-25 19:03 60.03734 5.38002 2987 ft 204 kts 328°
2026-04-25 19:04 60.05773 5.35148 2996 ft 205 kts 328°
2026-04-25 19:04 60.06940 5.33511 3005 ft 205 kts 328°
2026-04-25 19:05 60.09193 5.30329 2998 ft 185 kts 328°
2026-04-25 19:05 60.11234 5.27854 3025 ft 163 kts 350°
2026-04-25 19:05 60.12322 5.27488 3000 ft 156 kts 352°
2026-04-25 19:06 60.13374 5.27141 2999 ft 151 kts 352°
2026-04-25 19:06 60.15399 5.26470 2817 ft 142 kts 352°
2026-04-25 19:06 60.16362 5.26150 2638 ft 138 kts 352°
2026-04-25 19:07 60.18247 5.25523 2268 ft 137 kts 351°
2026-04-25 19:07 60.19175 5.25213 2076 ft 136 kts 350°
2026-04-25 19:08 60.21061 5.24584 1680 ft 138 kts 351°
2026-04-25 19:08 60.21993 5.24273 1488 ft 135 kts 350°
2026-04-25 19:09 60.24643 5.23387 931 ft 129 kts 348°
2026-04-25 19:09 60.25230 5.23193 799 ft 129 kts 349°
2026-04-25 19:09 60.27287 5.22499 382 ft 129 kts 348°
2026-04-25 19:10 60.28162 5.22206 237 ft 127 kts 348°
2026-04-25 19:10 60.28985 5.21945 177 ft 107 kts 349°
2026-04-25 19:10 60.29564 5.21744 173 ft 60 kts 351°
2026-04-25 19:10 60.29706 5.21766 174 ft 12 kts 55°
2026-04-25 19:11 60.29715 5.21833 172 ft 2 kts 82°
2026-04-25 19:11 60.29718 5.21879 171 ft 4 kts 82°
2026-04-25 19:11 60.29720 5.21912 171 ft 3 kts 82°
2026-04-25 19:11 60.29725 5.21988 170 ft 7 kts 82°
2026-04-25 19:12 60.29731 5.22092 168 ft 8 kts 89°
2026-04-25 19:12 60.29688 5.22145 167 ft 8 kts 172°
2026-04-25 19:12 60.29641 5.22157 167 ft 5 kts 172°
2026-04-25 19:12 60.29596 5.22171 169 ft 10 kts 171°
2026-04-25 19:13 60.29526 5.22196 173 ft 8 kts 168°
2026-04-25 19:13 60.29462 5.22220 175 ft 13 kts 170°
2026-04-25 19:13 60.29370 5.22253 177 ft 12 kts 169°
2026-04-25 19:13 60.29294 5.22279 177 ft 11 kts 171°
2026-04-25 19:14 60.29185 5.22315 177 ft 17 kts 171°
2026-04-25 19:14 60.29145 5.22328 177 ft 17 kts 171°
2026-04-25 19:14 60.28944 5.22391 174 ft 17 kts 171°
2026-04-25 19:14 60.28893 5.22426 174 ft 5 kts 118°
2026-04-25 19:15 60.28895 5.22484 174 ft 4 kts 89°
2026-04-25 19:15 60.28896 5.22526 174 ft 2 kts 87°
2026-04-25 19:15 60.28896 5.22534 174 ft 0 kts 86°
2026-04-25 19:15 60.28896 5.22535 174 ft 0 kts 86°